CW5532 Weather Reports


Display with metric or nautical units.
time (UTC)temp
F
wind
direction
speed
MPH
gust
MPH
rain 1hr
in
rain 24hr
in
rain mn
in
humidity
%
barometer
mb
20260901103233 84 145 1.0 13.0 0.00 0.00 0.00 56 1017.4
20260901100732 82 92 1.0 7.0 0.00 0.00 0.00 58 1017.7
20260901090733 81 85 4.0 7.0 0.00 0.00 0.00 62 1017.4
20260901083732 80 92 0.0 1.0 0.00 0.00 0.00 65 1017.5
20260901080233 79 111 0.0 0.0 0.00 0.00 0.00 68 1017.3
20260901073232 77 173 0.0 0.0 0.00 0.00 0.00 71 1017.7
20260901070732 73 229 0.0 0.0 0.00 0.00 0.00 77 1017.9
20260901070232 72 229 0.0 3.0 0.00 0.00 0.00 77 1017.9
20260901063731 68 253 0.0 0.0 0.00 0.00 0.00 80 1018.2
20260901053231 65 238 0.0 0.0 0.00 0.00 0.00 80 1017.9
20260901050732 65 238 0.0 0.0 0.00 0.00 0.00 80 1017.9
20260901043731 65 238 0.0 0.0 0.00 0.00 0.00 80 1017.7
20260901040731 67 238 0.0 0.0 0.00 0.00 0.00 80 1017.6
20260901033732 68 238 0.0 0.0 0.00 0.00 0.00 79 1017.5
20260901033232 68 238 0.0 0.0 0.00 0.00 0.00 79 1017.5
20260901030732 70 238 0.0 0.0 0.00 0.00 0.00 78 1017.4
20260901023232 71 238 0.0 0.0 0.00 0.00 0.00 78 1017.4
20260901020731 72 238 0.0 0.0 0.00 0.00 0.00 78 1017.8
20260901020231 72 235 0.0 0.0 0.00 0.00 0.00 78 1017.9
20260901013231 71 138 0.0 0.0 0.00 0.00 0.00 79 1018.0
20260901010232 71 136 0.0 0.0 0.00 0.00 0.00 78 1018.0
20260901003731 72 136 0.0 0.0 0.00 0.00 0.00 78 1018.0
20260901000732 71 136 0.0 0.0 0.00 0.00 0.00 78 1018.1
20260901000233 71 136 0.0 0.0 0.00 0.00 0.00 78 1018.2
20260831233231 72 138 0.0 0.0 0.00 0.00 0.00 78 1018.0
20260831223231 73 138 0.0 0.0 0.00 0.00 0.00 78 1017.9
20260831220231 73 138 0.0 0.0 0.00 0.00 0.00 78 1018.0
20260831213231 73 138 0.0 0.0 0.00 0.00 0.00 78 1017.9
20260831203231 73 138 0.0 0.0 0.00 0.00 0.00 77 1017.6
20260831200231 74 172 0.0 0.0 0.00 0.00 0.00 77 1017.3
20260831193731 75 100 0.0 0.0 0.00 0.00 0.00 76 1016.8
20260831190730 76 144 0.0 0.0 0.00 0.00 0.00 75 1016.2
20260831190231 76 144 0.0 0.0 0.00 0.00 0.00 75 1016.2
20260831183730 77 173 0.0 0.0 0.00 0.00 0.00 73 1016.0
20260831183230 78 138 0.0 0.0 0.00 0.00 0.00 73 1015.9
20260831170230 83 159 2.0 7.0 0.00 0.00 0.00 63 1015.7
20260831150730 88 156 5.0 14.0 0.00 0.00 0.00 55 1015.3
20260831150230 88 163 2.0 18.0 0.00 0.00 0.00 55 1015.3
20260831143230 88 165 6.0 16.0 0.00 0.00 0.00 55 1015.2
20260831140230 89 159 4.0 14.0 0.00 0.00 0.00 51 1015.0
20260831133230 90 148 3.0 12.0 0.00 0.00 0.00 42 1015.2
20260831130230 89 85 2.0 12.0 0.00 0.00 0.00 42 1015.5
20260831123230 88 94 2.0 10.0 0.00 0.00 0.00 42 1015.9
20260831120730 87 99 1.0 10.0 0.00 0.00 0.00 45 1016.2
20260831113229 85 165 1.0 7.0 0.00 0.00 0.00 46 1016.7